Location: North Evanston
(42.0634°N, 87.6976°W)
Time: 14:54:07
(UTC+00:00)

Vanguard 3 - Pass Details

Date: 10 May 2026
Orbit: 507 x 3204 km, 33.3° (Epoch: 6 June)

Event Time Altitude Azimuth Distance (km) Brightness Sun altitude
Rises 16:43:41 0° 174° (S) 6,581 12.1 62.2°
Reaches altitude 10° 16:52:57 10° 148° (SSE) 5,986 12.2 63.1°
Maximum altitude 16:58:36 12° 130° (SE) 5,927 12.1 63.6°
Drops below altitude 10° 17:04:17 10° 113° (ESE) 6,113 12.0 64.0°
Sets 17:13:51 0° 88° (E) 6,906 12.0 64.7°
